Location: Calvera
(42.3882°N, 0.6137°E)
Time: 13:10:18
(UTC+00:00)

Lacrosse 5 rocket - Pass Details

Date: 28 October 2020
Orbit: 458 x 638 km, 57.0° (Epoch: 24 November)

Event Time Altitude Azimuth Distance (km) Brightness Sun altitude
Exits shadow 04:25:31 35° 12° (NNE) 783 2.1 -22.8°
Drops below altitude 10° 04:28:03 10° 38° (NE) 1,676 4.3 -22.4°
Sets 04:30:19 0° 43° (NE) 2,588 5.4 -22.0°
